[[{"header":{"parameterUnit":"m.s-1","parameterCategory":1,"la1":30.2991,"la2":30.254,"lo1":-89.0895,"lo2":-89.0444,"dy":0.0017,"dx":0.0017,"nx":28,"ny":28,"refTime":"2023-09-29T03:00:00:Z","depth":0,"parameterNumber":2,"parameterNumberName":"U-component_of_WINDS"},"data":[0,0,0,0,0,0,0,0,0,0,0,0,0,0,0,0,0,0,0,0,0,0,0,0,0,0,0,0,0,0,0,0,0,0,0,0,0,0,0,0,0,0,0,0,0,0,0,0,0,0,0,0,0,0,0,0,0,0,-4.6365,-4.6366,0,-4.6395,-4.6395,-4.6395,-4.6285,-4.6281,-4.6278,-4.6275,-4.6307,-4.6311,-4.6315,0,0,0,0,0,0,0,0,0,0,0,0,0,-4.6215,-4.6219,-4.6365,-4.6366,-4.6366,-4.6395,-4.6395,-4.6396,-4.6285,-4.6281,-4.6277,-4.6273,-4.6306,-4.6311,-4.6315,0,0,0,0,0,0,0,0,0,0,0,0,0,-4.6266,-4.622,-4.6365,-4.6314,-4.631,-4.6395,-4.6395,-4.6396,-4.6286,-4.6281,-4.6276,-4.6272,-4.6304,-4.631,-4.6316,-4.6452,0,0,-4.6334,-4.6337,0,0,0,0,0,0,0,0,-4.6264,-4.6272,-4.6321,-4.6318,-4.6313,-4.6331,-4.6354,-4.6415,-4.6287,-4.6295,-4.6275,-4.6269,-4.6319,-4.6324,-4.634,-4.6453,-4.6454,-4.6334,-4.6338,-4.6341,-4.6342,0,0,0,0,0,0,0,-4.626,-4.627,-4.6377,-4.6322,-4.6317,-4.6291,-4.6293,-4.6365,-4.6335,-4.6294,-4.6286,-4.6291,-4.6316,-4.6335,-4.634,-4.6455,-4.6334,-4.634,-4.6343,-4.6346,-4.6683,-4.6688,0,0,0,0,0,0,-4.6263,-4.6268,-4.6376,-4.6378,-4.6276,-4.6298,-4.6299,-4.633,-4.6334,-4.6329,-4.6295,-4.6286,-4.6327,-4.6333,-4.6341,-4.6501,-4.6341,-4.6346,-4.6349,-4.6677,-4.6684,-4.669,0,0,0,0,0,0,-4.626,-4.6274,-4.6375,-4.6321,-4.6332,-4.6305,-4.6341,-4.6334,-4.6352,-4.6334,-4.6329,-4.632,-4.6323,-4.6332,-4.6425,-4.6501,-4.6349,-4.6354,-4.6671,-4.6679,-4.6687,-4.6823,0,0,0,0,0,0,-4.6257,-4.6273,-4.6324,-4.6323,-4.6335,-4.6458,-4.6345,-4.6338,-4.6362,-4.635,-4.6356,-4.6352,-4.632,-4.6417,-4.6431,-4.6506,-4.6359,-4.6664,-4.6675,-4.6684,-4.6811,-4.6834,-4.6854,0,0,0,0,0,-4.6252,-4.6361,-4.6327,-4.6341,-4.6397,-4.6463,-4.647,-4.643,-4.6369,-4.642,-4.6409,-4.6352,-4.649,-4.6427,-4.6442,-4.652,-4.6659,-4.6672,-4.6683,-4.6802,-4.683,-4.6854,0,0,0,0,0,0,-4.6372,-4.636,-4.6322,-4.6434,-4.6451,-4.6444,-4.6507,-4.6461,-4.6495,-4.6483,-4.6433,-4.6435,-4.6537,-4.6538,-4.6468,-4.6653,-4.6564,-4.658,-4.6649,-4.6675,-4.6696,-4.6695,-4.6364,0,0,0,0,0,-4.6412,-4.6465,-4.6452,-4.6552,-4.6562,-4.6534,-4.6561,-4.6529,-4.6544,-4.655,-4.6546,-4.6563,-4.661,-4.6643,-4.6685,-4.681,-4.6811,-4.6872,-4.6893,-4.6911,-4.6925,-4.6994,-4.7021,-4.673,-4.673,-4.6729,0,0,-4.6494,-4.6494,-4.6531,-4.6576,-4.6585,-4.6643,-4.654,-4.6605,-4.6647,-4.656,-4.6648,-4.6646,-4.6661,-4.6772,-4.682,-4.6775,-4.7006,-4.6926,-4.6941,-4.6946,-4.7009,-4.7037,-4.7061,-4.6738,-4.6737,-4.6735,0,0,-4.6674,-4.6679,-4.6764,-4.6775,-4.6789,-4.677,-4.6791,-4.6792,-4.6787,-4.6874,-4.681,-4.686,-4.6942,-4.6957,-4.6975,-4.7163,-4.7112,-4.7178,-4.729,-4.7358,-4.7381,-4.7401,-4.7469,-4.7494,-4.7192,-4.7193,-4.7193,0,-4.6775,-4.6858,-4.6813,-4.6883,-4.6906,-4.6829,-4.6916,-4.6929,-4.6957,-4.6975,-4.6924,-4.7027,-4.7032,-4.7146,-4.7192,-4.7208,-4.7232,-4.7177,-4.7381,-4.74,-4.7419,-4.7484,-4.7509,-4.7201,-4.72,-4.7199,-4.7198,0,-4.6983,-4.7042,-4.7109,-4.7138,-4.7168,-4.7246,-4.7214,-4.725,-4.7216,-4.7202,-4.7293,-4.7297,-4.734,-4.7364,-4.7331,-4.7474,-4.7446,-4.7389,-4.7299,-4.7455,-4.7516,-4.754,-4.7212,-4.7209,-4.7207,-4.7205,0,0,-4.7239,-4.7243,-4.7269,-4.7282,-4.7293,-4.7338,-4.7414,-4.7455,-4.7488,-4.751,-4.7573,-4.7645,-4.7593,-4.7614,-4.7582,-4.7641,-4.7792,-4.7577,-4.7576,-4.7618,-4.7951,-4.7996,-4.8025,-4.7758,-4.7762,-4.7766,-4.7951,0,-4.7417,-4.7545,-4.7508,-4.7637,-4.7692,-4.762,-4.7686,-4.7701,-4.7691,-4.7736,-4.7725,-4.7778,-4.7704,-4.7716,-4.7771,-4.7762,-4.7858,-4.7748,-4.7818,-4.7821,-4.7817,-4.8056,-4.8102,-4.8276,-4.7974,-4.7978,-4.7981,0,-4.7642,-4.7673,-4.7808,-4.7812,-4.7833,-4.7893,-4.7929,-4.7973,-4.7989,-4.7978,-4.8002,-4.7959,-4.8034,-4.7944,-4.8048,-4.7973,-4.8,-4.8,-4.8006,-4.8012,-4.7911,-4.807,-4.833,-4.8358,-4.8017,-4.8014,-4.8011,0,-4.7818,-4.7894,-4.7984,-4.7998,-4.8004,-4.8048,-4.8052,-4.8063,-4.8091,-4.8123,-4.8141,-4.8181,-4.8204,-4.8237,-4.8207,-4.8143,-4.8316,-4.8222,-4.831,-4.8312,-4.8351,-4.8349,-4.8621,-4.8366,-4.8366,-4.8365,-4.8364,0,-4.8021,-4.8107,-4.8064,-4.812,-4.8215,-4.8171,-4.8266,-4.8262,-4.8273,-4.8328,-4.8269,-4.8322,-4.8278,-4.8328,-4.8304,-4.8396,-4.8406,-4.84,-4.8393,-4.8406,-4.8407,-4.8424,-4.8411,-4.8372,-4.837,-4.8369,-4.8368,0,-4.8234,-4.8208,-4.8303,-4.8301,-4.8303,-4.8373,-4.8372,-4.8424,-4.841,-4.8481,-4.8495,-4.8473,-4.8529,-4.8501,-4.8559,-4.8543,-4.8662,-4.8638,-4.8657,-4.8651,-4.8741,-4.8734,-4.9034,-4.9072,-4.8791,-4.8794,-4.8796,0,-4.8366,-4.843,-4.8436,-4.8468,-4.8477,-4.853,-4.8559,-4.8519,-4.8551,-4.8575,-4.8626,-4.8676,-4.8714,-4.8807,-4.8797,-4.8842,-4.8819,-4.8922,-4.8826,-4.8838,-4.8823,-4.882,-4.8828,-4.8941,-4.8945,-4.8947,-4.8949,0,-4.8604,-4.8588,-4.8631,-4.8671,-4.8707,-4.8736,-4.876,-4.8791,-4.8752,-4.8791,-4.8848,-4.8878,-4.8937,-4.8989,-4.9028,-4.9034,-4.8987,-4.898,-4.9003,-4.9018,-4.9027,-4.9025,-4.8711,-4.8973,-4.8971,-4.8969,-4.8968,-4.8967,-4.8781,-4.8836,-4.8849,-4.8899,-4.8914,-4.8938,-4.8988,-4.898,-4.9026,-4.9072,-4.9045,-4.9112,-4.9128,-4.9175,-4.9188,-4.924,-4.92,-4.9233,-4.9241,-4.9251,-4.9264,-4.9017,-4.9247,-4.9246,-4.9246,-4.9245,-4.9245,0,-4.9017,-4.9022,-4.9069,-4.9106,-4.9146,-4.9097,-4.9122,-4.9159,-4.9218,-4.9237,-4.9276,-4.9342,-4.9393,-4.9387,-4.9433,-4.9477,-4.9456,-4.949,-4.9488,-4.949,-4.9296,-4.9272,-4.9506,-4.9506,-4.9506,-4.9506,-4.9506,-4.9506,-4.9145,-4.9236,-4.9222,-4.932,-4.9324,-4.9389,-4.9408,-4.9431,-4.9445,-4.9522,-4.9563,-4.9559,-4.9568,-4.9615,-4.966,-4.9657,-4.9678,-4.9721,-4.971,-4.9529,-4.9503,-4.9479,-4.9456,-4.9725,-4.9725,-4.99,-4.9901,-4.9903]},{"header":{"parameterUnit":"m.s-1","parameterCategory":1,"la1":30.2991,"la2":30.254,"lo1":-89.0895,"lo2":-89.0444,"dy":0.0017,"dx":0.0017,"nx":28,"ny":28,"refTime":"2023-09-29T03:00:00:Z","depth":0,"parameterNumber":3,"parameterNumberName":"V-component_of_WINDS"},"data":[0,0,0,0,0,0,0,0,0,0,0,0,0,0,0,0,0,0,0,0,0,0,0,0,0,0,0,0,0,0,0,0,0,0,0,0,0,0,0,0,0,0,0,0,0,0,0,0,0,0,0,0,0,0,0,0,0,0,-1.7835,-1.7835,0,-1.7823,-1.7823,-1.7823,-1.7788,-1.7787,-1.7786,-1.7785,-1.7774,-1.7774,-1.7775,0,0,0,0,0,0,0,0,0,0,0,0,0,-1.7827,-1.7827,-1.7835,-1.7835,-1.7835,-1.7823,-1.7823,-1.7823,-1.7788,-1.7787,-1.7786,-1.7785,-1.7774,-1.7774,-1.7775,0,0,0,0,0,0,0,0,0,0,0,0,0,-1.7824,-1.7827,-1.7835,-1.7816,-1.7814,-1.7823,-1.7823,-1.7823,-1.7788,-1.7787,-1.7786,-1.7785,-1.7774,-1.7774,-1.7775,-1.7802,0,0,-1.7777,-1.7777,0,0,0,0,0,0,0,0,-1.7824,-1.7825,-1.7819,-1.7817,-1.7815,-1.7806,-1.7816,-1.7816,-1.7788,-1.7798,-1.7785,-1.7784,-1.7785,-1.7785,-1.7785,-1.7801,-1.7801,-1.7777,-1.7777,-1.7777,-1.7778,0,0,0,0,0,0,0,-1.7825,-1.7825,-1.783,-1.7819,-1.7816,-1.7808,-1.7806,-1.7816,-1.7798,-1.7797,-1.7794,-1.7793,-1.7784,-1.7785,-1.7785,-1.7801,-1.7777,-1.7777,-1.7778,-1.7778,-1.7838,-1.7839,0,0,0,0,0,0,-1.7828,-1.7825,-1.7831,-1.783,-1.7817,-1.7809,-1.7807,-1.781,-1.7798,-1.7795,-1.7794,-1.7792,-1.7784,-1.7784,-1.7784,-1.7815,-1.7777,-1.7778,-1.7778,-1.7837,-1.7838,-1.7839,0,0,0,0,0,0,-1.7828,-1.7828,-1.7831,-1.7827,-1.7827,-1.781,-1.7814,-1.781,-1.7811,-1.7796,-1.7793,-1.7798,-1.7783,-1.7783,-1.7798,-1.7814,-1.7778,-1.7779,-1.7835,-1.7837,-1.7839,-1.7877,0,0,0,0,0,0,-1.7827,-1.7829,-1.7839,-1.7827,-1.7827,-1.7845,-1.7815,-1.7811,-1.7812,-1.7808,-1.7799,-1.7796,-1.7783,-1.7797,-1.7798,-1.7815,-1.7779,-1.7834,-1.7836,-1.7838,-1.7875,-1.788,-1.7885,0,0,0,0,0,-1.7827,-1.7851,-1.784,-1.7841,-1.7839,-1.7846,-1.7846,-1.7829,-1.7813,-1.7824,-1.7814,-1.7797,-1.7812,-1.7799,-1.78,-1.7817,-1.7832,-1.7835,-1.7838,-1.7872,-1.7879,-1.7885,0,0,0,0,0,0,-1.7865,-1.7849,-1.7837,-1.7857,-1.7853,-1.784,-1.7852,-1.7837,-1.7838,-1.7835,-1.7814,-1.7812,-1.783,-1.7824,-1.781,-1.7842,-1.7819,-1.7822,-1.7845,-1.7851,-1.7857,-1.7858,-1.778,0,0,0,0,0,-1.7876,-1.7882,-1.7868,-1.7887,-1.7885,-1.7869,-1.7871,-1.7859,-1.7854,-1.7853,-1.7844,-1.784,-1.7844,-1.7847,-1.785,-1.7873,-1.7871,-1.7885,-1.789,-1.7895,-1.7898,-1.791,-1.7916,-1.7848,-1.7848,-1.7848,0,0,-1.7898,-1.789,-1.7895,-1.7894,-1.789,-1.7897,-1.7868,-1.7877,-1.7882,-1.7854,-1.7867,-1.786,-1.7855,-1.7874,-1.7881,-1.787,-1.7916,-1.7898,-1.7902,-1.7903,-1.7913,-1.792,-1.7925,-1.785,-1.785,-1.785,0,0,-1.7942,-1.7937,-1.7952,-1.7948,-1.7941,-1.793,-1.7934,-1.7923,-1.7917,-1.793,-1.7908,-1.7914,-1.7921,-1.7918,-1.7917,-1.7959,-1.7943,-1.796,-1.7989,-1.8,-1.8006,-1.801,-1.8025,-1.8031,-1.7963,-1.7964,-1.7964,0,-1.7971,-1.7981,-1.7962,-1.7972,-1.7972,-1.7946,-1.7961,-1.7958,-1.7953,-1.7953,-1.794,-1.7948,-1.7943,-1.796,-1.797,-1.797,-1.7974,-1.7962,-1.8006,-1.8011,-1.8015,-1.8029,-1.8035,-1.7966,-1.7965,-1.7965,-1.7965,0,-1.8016,-1.8023,-1.8036,-1.8032,-1.8033,-1.8046,-1.8028,-1.8032,-1.8019,-1.8009,-1.8022,-1.8014,-1.8015,-1.8017,-1.8005,-1.8033,-1.8026,-1.801,-1.7987,-1.8024,-1.8037,-1.8042,-1.7969,-1.7968,-1.7967,-1.7967,0,0,-1.8086,-1.8069,-1.8074,-1.8071,-1.8062,-1.8067,-1.8078,-1.8078,-1.8082,-1.8078,-1.8087,-1.8093,-1.8078,-1.8077,-1.8064,-1.8074,-1.8108,-1.8056,-1.8056,-1.8067,-1.8138,-1.8151,-1.8158,-1.8097,-1.8097,-1.8098,-1.8139,0,-1.8128,-1.8146,-1.8129,-1.815,-1.8157,-1.8131,-1.8141,-1.8136,-1.8126,-1.813,-1.812,-1.8125,-1.8104,-1.8103,-1.8112,-1.8102,-1.8122,-1.8099,-1.8105,-1.8106,-1.8108,-1.8164,-1.8178,-1.8217,-1.8144,-1.8145,-1.8145,0,-1.818,-1.8179,-1.8201,-1.8189,-1.8191,-1.82,-1.8198,-1.8202,-1.8196,-1.8188,-1.8187,-1.817,-1.818,-1.8157,-1.8171,-1.8155,-1.8156,-1.8152,-1.8153,-1.8154,-1.8128,-1.8167,-1.8229,-1.8235,-1.8153,-1.8152,-1.8152,0,-1.8229,-1.8233,-1.8246,-1.8245,-1.8231,-1.8238,-1.8232,-1.8225,-1.8226,-1.8224,-1.8224,-1.8224,-1.8224,-1.8224,-1.8208,-1.8193,-1.8224,-1.8199,-1.8218,-1.8219,-1.8227,-1.8227,-1.829,-1.8226,-1.8226,-1.8226,-1.8226,0,-1.8279,-1.8293,-1.8268,-1.8277,-1.8292,-1.8271,-1.8287,-1.8279,-1.8272,-1.8279,-1.8256,-1.8263,-1.8241,-1.8245,-1.8232,-1.8245,-1.8245,-1.824,-1.8236,-1.8242,-1.8243,-1.8244,-1.8241,-1.8228,-1.8227,-1.8227,-1.8227,0,-1.8336,-1.832,-1.8333,-1.8319,-1.8315,-1.8327,-1.8315,-1.8322,-1.8311,-1.8319,-1.832,-1.8302,-1.8306,-1.8289,-1.829,-1.8282,-1.8302,-1.8293,-1.8304,-1.8302,-1.8322,-1.832,-1.8388,-1.8396,-1.8327,-1.8328,-1.8328,0,-1.837,-1.838,-1.8366,-1.8369,-1.8364,-1.8369,-1.8369,-1.8349,-1.835,-1.8343,-1.8351,-1.8353,-1.8353,-1.836,-1.8348,-1.8348,-1.834,-1.8364,-1.834,-1.8346,-1.8341,-1.8341,-1.8342,-1.8369,-1.837,-1.8371,-1.8371,0,-1.843,-1.8421,-1.8423,-1.8422,-1.8423,-1.8421,-1.8417,-1.842,-1.8398,-1.8401,-1.8404,-1.8404,-1.8405,-1.8407,-1.8404,-1.8399,-1.8382,-1.8379,-1.8383,-1.839,-1.8396,-1.8393,-1.8318,-1.8378,-1.8377,-1.8376,-1.8376,-1.8376,-1.8477,-1.8485,-1.8477,-1.8479,-1.8474,-1.8471,-1.8477,-1.8466,-1.8468,-1.8466,-1.8454,-1.8459,-1.8452,-1.8447,-1.8443,-1.8447,-1.8435,-1.8442,-1.8444,-1.8446,-1.8449,-1.8394,-1.8446,-1.8446,-1.8446,-1.8445,-1.8445,0,-1.8537,-1.853,-1.8532,-1.8528,-1.8529,-1.8512,-1.8507,-1.8509,-1.8514,-1.8508,-1.8509,-1.8512,-1.8514,-1.8501,-1.8501,-1.8506,-1.8498,-1.8507,-1.8507,-1.8506,-1.8459,-1.8456,-1.8513,-1.8513,-1.8513,-1.8513,-1.8513,-1.8513,-1.8569,-1.8581,-1.8571,-1.8581,-1.8573,-1.8578,-1.8577,-1.8574,-1.8569,-1.8574,-1.8575,-1.8566,-1.8557,-1.8556,-1.8556,-1.8552,-1.8554,-1.8565,-1.8559,-1.8516,-1.8509,-1.8503,-1.8499,-1.8565,-1.8565,-1.8605,-1.8605,-1.8606]}]]